Tracking 30692 objects as of 17-Jun-2025
HD Live streaming from Space Station
objects crossing your sky now

STARLINK-30095

Track STARLINK-30095 now!
10-day predictions
STARLINK-30095 is classified as:


NORAD ID: 56289
Int'l Code: 2023-056D
Perigee: 565.3 km
Apogee: 567.2 km
Inclination: 43.0 °
Period: 95.8 minutes
Semi major axis: 6937 km
RCS: Unknown
Launch date: April 19, 2023
Source: United States (US)
Launch site: AIR FORCE EASTERN TEST RANGE (AFETR)
Your satellite tracking list
Your tracking list is empty




NASA's NSSDC Master Catalog

Two Line Element Set (TLE):
1 56289U 23056D   25167.38813228 -.00000484  00000-0 -20773-4 0  9993
2 56289  43.0015 191.2752 0001401 278.1601  81.9082 15.02532093120262
Source of the keplerian elements: AFSPC